EW4195 Weather Reports


time (UTC)temp
C
wind
direction
speed
KPH
gust
KPH
rain 1hr
cm
rain 24hr
cm
rain mn
cm
humidity
%
barometer
mb
20260905132203 24 5 3.2 12.9 0.00 0.00 0.00 38 1023.2
20260905130039 23 0 3.2 12.9 0.00 0.00 0.00 37 1023.3
20260905125015 23 9 4.8 12.9 0.00 0.00 0.00 35 1023.2
20260905124012 23 5 4.8 12.9 0.00 0.00 0.00 35 1023.3
20260905123017 23 13 6.4 12.9 0.00 0.00 0.00 35 1023.2
20260905122000 23 5 3.2 12.9 0.00 0.00 0.00 34 1023.2
20260905120948 23 5 4.8 17.7 0.00 0.00 0.00 32 1023.1
20260905115935 22 355 4.8 17.7 0.00 0.00 0.00 28 1023.1
20260905114943 22 0 4.8 14.5 0.00 0.00 0.00 26 1023.1
20260905111553 22 21 1.6 12.9 0.00 0.00 0.00 26 1023.0
20260905110550 22 28 1.6 11.3 0.00 0.00 0.00 22 1022.9
20260905104454 22 11 3.2 12.9 0.00 0.00 0.00 21 1022.8
20260905103426 22 0 4.8 16.1 0.00 0.00 0.00 19 1022.8
20260905102421 22 338 6.4 16.1 0.00 0.00 0.00 15 1022.8
20260905100304 21 355 1.6 14.5 0.00 0.00 0.00 1 1022.8
20260905094124 20 296 1.6 14.5 0.00 0.00 0.00 1 1022.5
20260905093136 20 307 3.2 12.9 0.00 0.05 0.00 1 1022.4
20260905092125 20 323 1.6 12.9 0.00 0.08 0.00 1 1022.3
20260905091107 19 310 3.2 12.9 0.00 0.08 0.00 1 1022.2
20260905090043 19 333 3.2 12.9 0.00 0.08 0.00 1 1022.2
20260905085040 18 347 4.8 17.7 0.00 0.08 0.00 1 1022.1
20260905084056 18 321 4.8 17.7 0.00 0.08 0.00 1 1022.1
20260905083100 18 302 4.8 14.5 0.00 0.08 0.00 1 1021.9
20260905082051 18 313 3.2 14.5 0.00 0.08 0.00 1 1021.9
20260905081054 17 295 3.2 14.5 0.00 0.08 0.00 1 1021.7
20260905080058 17 279 3.2 16.1 0.00 0.08 0.00 1 1021.6
20260905075112 16 260 6.4 16.1 0.00 0.08 0.00 1 1021.6
20260905074129 16 267 4.8 12.9 0.00 0.08 0.00 1 1021.5
20260905073117 16 276 4.8 14.5 0.00 0.08 0.00 1 1021.4
20260905072125 15 268 4.8 14.5 0.00 0.08 0.00 1 1021.3
20260905071135 15 274 4.8 11.3 0.00 0.08 0.00 1 1021.1
20260905070105 14 269 4.8 12.9 0.00 0.08 0.00 1 1021.0
20260905065120 14 263 4.8 12.9 0.00 0.08 0.00 1 1021.0
20260905064051 13 279 3.2 12.9 0.00 0.08 0.00 1 1021.0
20260905063039 13 243 4.8 12.9 0.00 0.08 0.00 1 1020.9
20260905062035 13 250 3.2 11.3 0.00 0.08 0.00 1 1020.7
20260905061008 13 242 3.2 11.3 0.00 0.08 0.00 1 1020.6
20260905060028 13 254 3.2 9.7 0.00 0.08 0.00 1 1020.6
20260905055019 13 261 3.2 9.7 0.00 0.08 0.00 1 1020.3
20260905054031 13 256 3.2 11.3 0.00 0.08 0.00 1 1020.3
20260905053029 13 265 4.8 14.5 0.00 0.08 0.00 1 1020.2
20260905052009 13 265 4.8 14.5 0.00 0.08 0.00 1 1020.1
20260905051001 13 252 4.8 9.7 0.00 0.08 0.00 1 1020.0
20260905044759 13 261 3.2 11.3 0.00 0.08 0.00 1 1019.7
20260905043820 13 255 4.8 12.9 0.00 0.08 0.00 1 1019.6
20260905042810 13 279 4.8 12.9 0.00 0.08 0.00 1 1019.6
20260905035602 13 257 6.4 12.9 0.00 0.08 0.00 1 1019.1
20260905034611 13 272 4.8 12.9 0.00 0.08 0.00 1 1019.0
20260905033553 13 263 6.4 12.9 0.00 0.08 0.00 1 1019.0
20260905032559 13 255 4.8 11.3 0.00 0.08 0.00 1 1018.9
20260905031615 13 241 4.8 12.9 0.00 0.08 0.00 1 1019.0
20260905030540 13 257 4.8 12.9 0.00 0.08 0.00 1 1018.9
20260905025543 13 262 3.2 11.3 0.00 0.08 0.00 1 1018.8
20260905023403 13 240 4.8 14.5 0.00 0.08 0.00 1 1018.7
20260905022352 14 248 4.8 14.5 0.00 0.08 0.00 1 1018.6
20260905021414 14 246 4.8 12.9 0.00 0.08 0.00 1 1018.5
20260905020350 14 248 4.8 12.9 0.00 0.08 0.00 1 1018.4
20260905014311 14 248 4.8 11.3 0.00 0.08 0.00 1 1018.4
20260905012149 15 249 6.4 14.5 0.00 0.08 0.00 1 1018.4
20260905011202 15 253 4.8 12.9 0.00 0.08 0.00 1 1018.3
20260905010147 15 269 4.8 12.9 0.00 0.08 0.00 1 1018.3
20260905005112 15 250 4.8 14.5 0.00 0.08 0.00 1 1018.3
20260905004059 15 267 4.8 14.5 0.00 0.08 0.00 1 1018.2
20260905003102 15 264 4.8 11.3 0.00 0.08 0.00 1 1018.2
20260905002120 15 277 4.8 11.3 0.00 0.08 0.00 1 1018.2
20260905001139 15 269 4.8 12.9 0.00 0.08 0.00 1 1018.1
20260905000150 15 259 4.8 12.9 0.00 0.08 0.00 1 1018.0
20260904235132 15 261 6.4 12.9 0.00 0.08 0.00 1 1017.8
20260904234152 15 254 4.8 12.9 0.00 0.08 0.00 1 1017.9
20260904233127 15 250 4.8 14.5 0.00 0.08 0.00 1 1017.8
20260904232106 16 254 4.8 14.5 0.00 0.08 0.00 1 1017.7
20260904231125 16 257 4.8 12.9 0.00 0.08 0.00 1 1017.6
20260904230059 16 277 4.8 12.9 0.00 0.08 0.00 1 1017.5
20260904225106 16 252 4.8 12.9 0.00 0.08 0.08 1 1017.5
20260904222923 16 268 6.4 12.9 0.00 0.08 0.08 1 1017.4
20260904221929 16 261 4.8 12.9 0.00 0.08 0.08 1 1017.4
20260904220954 16 246 4.8 12.9 0.00 0.08 0.08 1 1017.4
20260904215924 16 259 4.8 12.9 0.00 0.08 0.08 1 1017.4
20260904214903 16 252 4.8 16.1 0.00 0.08 0.08 1 1017.3
20260904213833 16 251 4.8 12.9 0.00 0.08 0.08 1 1017.1
20260904212831 16 250 4.8 11.3 0.00 0.08 0.08 1 1017.1
20260904211757 16 248 3.2 8.0 0.00 0.08 0.08 1 1017.1
20260904210742 16 256 3.2 12.9 0.00 0.08 0.08 1 1017.0
20260904205740 17 252 4.8 12.9 0.00 0.08 0.08 1 1016.9
20260904204711 17 266 3.2 8.0 0.00 0.08 0.08 1 1017.0
20260904203639 17 254 3.2 12.9 0.00 0.08 0.08 1 1016.9
20260904202609 17 250 4.8 12.9 0.00 0.08 0.08 1 1016.7
20260904201545 17 269 4.8 11.3 0.00 0.08 0.08 1 1016.7
20260904200521 17 271 3.2 8.0 0.00 0.08 0.08 1 1016.6
20260904195522 17 257 3.2 11.3 0.00 0.08 0.08 1 1016.4
20260904193317 18 285 3.2 11.3 0.00 0.08 0.08 6 1016.2
20260904192306 18 271 4.8 11.3 0.00 0.08 0.08 10 1015.9
20260904191312 18 271 4.8 11.3 0.00 0.08 0.08 12 1015.8
20260904190337 18 260 4.8 14.5 0.00 0.08 0.08 14 1015.5
20260904184218 18 281 6.4 14.5 0.00 0.08 0.08 17 1015.2
20260904183148 19 262 4.8 16.1 0.00 0.08 0.08 19 1015.2
20260904182125 19 264 6.4 16.1 0.00 0.08 0.08 22 1015.2
20260904181126 19 268 4.8 14.5 0.00 0.08 0.08 23 1014.9
20260904180126 19 274 6.4 19.3 0.00 0.08 0.08 24 1014.9
20260904175149 20 267 4.8 19.3 0.00 0.08 0.08 26 1014.8
20260904174147 20 280 6.4 16.1 0.00 0.08 0.08 27 1014.8
20260904173154 20 258 6.4 16.1 0.00 0.08 0.08 28 1014.7
20260904172122 20 284 8.0 16.1 0.00 0.08 0.08 27 1014.4
20260904171127 20 273 4.8 22.5 0.00 0.08 0.08 27 1014.4
20260904170053 20 273 6.4 22.5 0.00 0.08 0.08 25 1014.4
20260904165102 20 278 6.4 17.7 0.00 0.08 0.08 24 1014.2
20260904164037 20 268 8.0 22.5 0.00 0.08 0.08 25 1014.0
20260904163055 20 261 6.4 22.5 0.00 0.08 0.08 25 1014.0
20260904162117 21 282 8.0 25.7 0.00 0.08 0.08 25 1013.8
20260904161125 21 277 8.0 25.7 0.00 0.08 0.08 26 1013.8
20260904160117 21 273 9.7 24.1 0.00 0.08 0.08 26 1013.8
20260904155101 21 263 11.3 24.1 0.00 0.08 0.08 25 1013.8
20260904154120 21 324 6.4 29.0 0.00 0.08 0.08 20 1013.6
20260904153126 21 280 6.4 29.0 0.00 0.08 0.08 21 1013.5
20260904152121 21 265 9.7 24.1 0.00 0.08 0.08 27 1013.5
20260904151125 21 257 4.8 16.1 0.00 0.08 0.08 12 1013.2
20260904150136 21 293 6.4 24.1 0.00 0.08 0.08 16 1013.3
20260904145103 21 244 6.4 24.1 0.00 0.08 0.08 21 1013.3
20260904144125 22 308 8.0 25.7 0.00 0.08 0.08 21 1013.1
20260904143136 22 265 9.7 25.7 0.00 0.08 0.08 21 1013.1
20260904142142 22 275 8.0 29.0 0.00 0.05 0.05 21 1013.2
20260904141111 22 294 9.7 29.0 0.00 0.05 0.05 13 1013.1
20260904140115 22 241 8.0 25.7 0.00 0.05 0.05 6 1012.8
20260904135050 22 296 4.8 22.5 0.00 0.05 0.05 1 1013.0
20260904134103 22 317 6.4 22.5 0.00 0.05 0.05 1 1013.1
20260904133040 22 263 6.4 19.3 0.00 0.05 0.05 1 1012.9